Temperature
18 18 18 18 18 18 18 18 18 18 18 17 18 18 18 18 18 18 18 18 18 18 18 18 17 18 18 18 18 18 18 18 18 18 18 17 17 17 17 17 17 17 16
18 18 18 18 18 18 17 17 17 17 17 17 17 18 18 18 18 18 18 18 18 18 18 18 18 17 18 18 18 18 18 18 18 18 17 17 17 17 17 17 17 17 17
17 17 17 17 17 17 17 17 17 17 17 17 17 17 17 17 17 18 18 18 18 18 18 17 17 17 17 18 18 18 18 18 18 17 17 17 17 17 17 17 17 17 17
17 17 17 17 17 17 17 17 16 16 16 16 17 17 17 17 17 17 17 17 18 18 18 17 17 17 17 17 17 18 18 18 18 17 17 17 17 17 17 17 17 17 17
17 17 17 17 17 17 16 16 16 16 16 16 16 16 17 17 17 17 17 17 17 18 17 17 17 17 17 17 17 18 18 18 18 17 17 17 17 17 17 17 17 17 17
17 17 17 16 16 16 16 16 16 16 16 16 16 16 16 17 17 17 17 17 17 17 17 17 17 17 17 17 17 17 17 18 17 17 17 17 17 17 17 17 17 17 17
16 16 16 16 16 16 16 15 15 15 15 16 15 16 16 17 17 17 17 17 17 17 17 17 17 17 17 17 17 17 17 17 17 17 17 17 17 17 17 17 17 16 16
15 15 15 15 15 15 15 15 15 15 15 15 15 15 16 16 17 17 17 17 18 17 17 17 17 17 17 17 17 17 17 17 17 17 17 17 17 17 17 17 17 16 16
15 15 15 15 15 14 15 14 15 14 15 15 15 15 15 16 17 17 17 17 18 17 17 17 17 17 17 17 17 17 17 17 17 17 17 17 17 17 17 17 17 17 17
14 14 14 14 14 14 14 14 14 14 14 14 15 15 15 15 16 16 17 17 17 17 17 17 17 17 17 17 17 17 17 17 17 17 17 17 17 17 17 17 17 17 17
14 14 14 14 14 14 14 14 14 14 14 14 14 14 15 15 15 16 16 17 17 17 17 17 17 17 17 17 17 17 17 17 17 17 17 17 17 17 17 17 17 17 17
13 13 13 13 13 13 13 13 13 13 13 14 14 14 14 14 15 15 16 16 17 17 17 17 17 17 17 17 17 17 17 17 17 17 17 17 17 17 17 17 17 16 17
13 13 13 13 13 13 13 13 13 13 13 13 13 14 14 14 14 15 15 16 16 16 17 17 17 17 17 17 17 17 17 17 16 16 16 16 16 16 16 16 16 16 16
12 12 12 12 12 12 12 12 12 12 13 13 13 13 13 14 14 14 15 15 15 16 16 16 16 17 17 17 17 17 16 16 16 16 16 16 16 16 16 16 16 16 16
11 11 11 11 11 12 12 12 12 12 12 12 12 13 13 13 13 14 14 15 15 15 16 16 16 16 16 16 16 16 16 16 16 16 16 16 16 16 16 16 16 16 16
11 11 11 11 11 11 11 11 11 11 12 12 12 12 12 13 13 13 13 14 14 15 15 16 16 16 16 16 16 16 16 16 16 16 16 16 16 16 16 16 16 16 16
10 10 10 10 10 10 11 11 11 11 11 11 11 12 12 12 12 13 13 13 13 14 14 15 15 15 16 16 16 16 15 15 16 16 16 16 16 16 16 16 16 16 16
9 9 9 9 10 10 10 10 10 10 11 11 11 11 11 11 12 12 12 12 13 13 14 14 15 15 15 15 15 15 15 15 15 15 16 16 16 16 16 16 16 16 16
9 9 9 9 9 9 9 9 10 10 10 10 10 11 11 11 11 11 12 12 12 13 13 14 14 14 14 14 14 14 15 15 15 15 15 15 15 15 15 16 16 16 16
8 9 8 8 9 9 9 9 9 9 9 10 10 10 10 11 11 11 11 11 12 12 12 13 13 14 14 14 14 14 14 14 14 14 14 15 15 15 15 15 15 15 15
8 8 8 8 8 8 8 8 9 9 9 9 10 10 10 10 10 11 11 11 11 11 12 12 12 13 13 13 13 14 14 13 14 14 14 14 14 14 14 15 15 15 15
8 7 7 8 8 8 8 8 8 8 8 8 9 9 10 10 10 10 10 10 11 11 11 12 12 12 12 13 13 13 13 13 13 13 13 13 13 13 13 14 14 14 14
7 7 7 7 7 7 7 7 7 7 7 8 8 9 9 9 10 10 10 10 10 10 11 11 11 12 12 12 13 12 13 13 14 14 13 13 13 13 13 13 13 13 14
7 7 7 7 7 7 7 7 7 7 7 7 8 8 8 9 9 9 10 10 10 10 10 10 11 11 11 12 12 12 12 12 13 13 13 12 12 12 12 12 12 13 13
7 7 7 7 7 7 7 7 6 6 7 7 7 8 8 8 9 9 9 9 9 10 10 10 10 10 10 11 11 11 11 11 12 12 12 12 12 12 11 12 12 12 12
7 7 7 7 7 7 7 7 6 6 6 7 7 7 8 8 8 9 9 9 9 9 9 9 10 10 10 10 11 11 11 11 12 11 11 11 12 11 11 11 11 11 12
Wind_Speed
5 4 4 5 7 9 8 7 8 9 9 12 13 12 10 13 13 14 14 17 20 23 26 27 26 26 25 25 25 24 24 23 22 22 21 20 19 19 18 18 17 17 17
4 4 4 3 4 7 8 8 8 9 8 8 10 9 10 12 13 15 15 15 19 23 26 27 27 26 26 26 26 25 25 24 24 24 23 22 21 20 19 19 18 18 18
4 3 3 3 4 6 7 6 7 7 8 9 9 10 8 9 11 14 15 15 15 21 25 27 28 27 27 27 27 26 26 25 25 25 24 24 23 23 22 21 20 20 20
1 1 2 3 4 5 4 5 5 6 7 7 7 8 8 8 10 12 14 14 14 16 21 26 27 28 29 28 27 27 26 26 26 26 25 25 25 24 24 23 22 22 21
1 0 2 3 4 3 4 5 4 4 5 7 8 8 8 8 9 10 11 13 15 16 17 22 27 29 30 29 28 27 27 26 26 26 26 26 25 25 25 25 24 24 23
1 1 2 3 3 3 4 4 4 4 5 6 8 9 7 8 7 9 11 10 13 17 18 18 20 24 30 29 27 27 27 26 27 27 27 26 26 26 26 26 25 25 24
1 1 2 3 3 3 5 5 4 4 5 4 4 5 5 7 8 9 9 9 10 13 16 17 17 18 20 27 27 27 26 26 26 27 27 27 27 26 26 26 26 26 26
2 2 2 3 3 3 4 4 3 3 3 3 3 2 3 3 5 10 8 9 10 8 10 15 16 17 17 17 21 26 26 26 26 26 26 27 27 26 26 26 25 26 26
4 4 3 3 3 2 3 4 4 4 3 2 3 3 3 4 3 3 6 8 8 8 9 8 12 16 18 16 17 22 26 26 25 25 25 25 26 26 26 26 25 25 26
5 4 3 3 3 2 2 3 2 2 3 3 2 3 3 3 2 2 2 3 6 7 8 9 10 12 17 16 17 19 23 24 25 24 24 24 24 24 25 25 25 25 25
5 5 4 3 3 3 3 3 3 2 2 3 3 2 3 3 2 2 2 2 1 3 5 7 7 7 12 15 15 18 21 23 23 23 22 22 22 23 23 24 24 24 24
4 5 4 4 4 4 4 3 3 2 2 2 2 2 2 2 2 2 3 3 3 3 3 4 5 6 8 13 16 18 20 20 21 21 20 20 21 21 22 22 23 23 23
4 5 4 4 4 5 5 4 3 3 2 2 2 2 2 2 1 1 2 2 2 2 1 2 4 5 6 9 12 17 18 19 19 19 18 18 18 19 20 21 21 21 21
5 6 6 5 6 6 5 4 3 4 3 3 3 2 1 2 2 2 2 2 2 1 1 2 1 3 4 7 11 14 12 16 17 17 16 15 15 16 17 18 19 20 20
5 6 6 6 6 6 6 5 4 5 4 4 4 3 2 2 2 2 2 2 3 3 3 2 1 1 3 6 9 10 9 12 14 14 14 13 13 13 14 16 17 17 18
5 6 6 6 6 7 7 6 6 6 6 5 4 4 4 3 2 2 2 2 3 3 3 2 1 1 3 4 7 8 8 11 10 11 10 10 10 10 11 12 13 14 14
6 6 7 7 7 7 7 7 8 7 8 7 6 6 6 5 3 3 3 3 3 3 4 2 1 1 2 5 5 6 8 8 7 8 8 8 8 8 9 9 10 10 11
7 7 7 7 8 8 7 7 9 9 9 9 8 7 7 5 5 4 4 4 4 4 4 4 2 2 2 6 7 7 6 7 7 8 9 8 8 7 7 7 8 8 8
8 8 7 8 8 8 8 8 9 9 9 10 9 9 8 7 7 5 6 5 5 4 4 4 4 2 2 5 5 5 6 5 6 8 9 9 9 9 8 7 7 6 6
8 8 8 8 8 8 8 9 9 9 9 9 9 10 9 9 9 8 7 7 6 5 4 4 4 3 4 4 6 6 5 3 4 5 7 8 9 9 8 7 6 6 6
9 8 8 8 8 8 8 9 9 10 9 9 9 9 10 12 12 10 7 7 7 6 5 5 5 4 4 6 7 5 6 6 3 3 4 3 5 5 5 6 5 5 6
9 8 8 9 9 10 11 12 9 8 7 8 9 9 10 11 14 15 14 12 11 9 8 6 5 6 6 6 5 7 7 6 4 5 4 3 3 3 3 3 4 6 7
8 9 9 9 9 11 14 15 14 9 8 8 8 8 10 10 11 9 11 13 13 13 11 8 7 7 7 7 8 8 7 7 5 8 5 4 3 3 2 3 5 7 8
8 9 9 9 9 11 14 15 15 10 8 9 9 9 10 9 9 10 9 9 7 8 9 8 7 7 7 7 9 9 7 5 4 5 5 4 3 3 2 3 5 7 9
9 9 8 9 9 11 13 14 13 7 8 9 10 9 10 10 12 13 10 9 8 6 7 9 9 9 9 9 8 7 8 8 5 5 3 4 4 3 3 2 3 7 10
9 9 9 8 9 10 12 14 13 6 7 7 7 9 12 12 13 14 11 10 10 8 7 7 7 7 7 8 11 9 9 8 5 5 5 5 5 5 4 2 2 4 7
Wind_Direction
223 232 237 237 233 225 217 217 219 221 222 226 224 221 222 222 221 224 228 230 223 213 208 207 206 205 203 201 201 201 202 203 201 200 199 199 199 197 196 195 193 192 192
211 224 241 248 243 233 227 223 225 228 226 228 230 226 223 223 223 224 226 229 223 214 211 211 210 210 209 207 205 205 205 206 204 204 203 202 202 201 201 201 199 198 198
209 225 244 256 252 247 241 238 235 234 234 231 234 233 228 224 222 223 224 227 224 219 214 214 213 213 213 212 211 209 208 208 207 206 206 205 204 204 204 205 204 203 203
134 234 252 260 265 261 245 241 237 234 234 229 231 235 232 227 224 222 221 223 221 220 218 219 217 217 216 216 215 213 211 210 210 209 209 208 208 207 207 207 207 207 207
67 238 263 269 280 276 267 261 248 231 240 239 239 237 234 229 226 224 218 218 217 215 213 218 219 220 220 219 217 216 214 213 212 212 211 211 211 211 211 211 211 210 210
13 332 280 284 286 282 276 266 260 243 239 240 251 249 237 232 226 222 220 217 216 216 213 214 218 224 222 219 218 218 217 216 214 214 214 214 214 213 213 213 213 213 212
316 298 294 297 299 284 274 265 257 255 251 229 236 255 255 240 233 228 222 215 214 214 212 211 212 215 219 220 219 219 219 218 217 216 216 216 216 215 214 214 214 215 214
295 284 277 283 291 293 293 279 262 255 259 216 200 224 261 268 245 233 219 216 215 207 209 210 207 208 209 211 218 220 220 221 220 219 218 218 217 216 216 215 215 216 217
287 275 264 262 276 283 293 290 271 249 251 254 207 199 206 231 254 253 224 218 209 204 207 203 205 206 207 207 209 217 220 220 221 221 219 219 217 216 216 217 215 216 218
298 282 266 252 250 256 288 301 308 265 244 250 258 235 228 212 203 260 287 231 211 203 201 207 205 204 205 204 208 211 215 217 219 220 220 219 217 216 216 217 217 217 218
303 291 268 246 239 241 256 283 304 303 273 251 240 241 244 248 218 192 232 250 244 221 204 202 198 198 199 200 203 209 211 213 215 217 218 218 217 216 216 218 220 220 219
296 296 276 248 238 235 241 253 268 289 295 287 258 227 215 224 227 196 203 210 218 241 222 204 197 194 194 195 200 203 204 206 209 212 214 216 217 217 218 219 222 224 222
280 274 270 253 246 242 241 239 246 258 272 288 280 252 226 228 224 210 195 203 210 249 232 218 209 193 189 185 195 199 201 203 205 207 209 212 215 218 219 220 223 224 223
259 265 263 251 247 244 241 230 232 244 246 254 266 262 236 232 224 215 194 183 190 228 225 229 221 193 180 175 185 184 188 193 197 201 205 208 212 216 218 219 221 223 224
273 276 270 261 254 248 242 233 232 237 240 245 248 247 236 239 230 226 212 187 179 191 217 227 206 199 161 153 163 162 164 179 185 191 198 202 208 215 218 219 221 221 222
280 285 280 271 264 257 247 236 238 238 233 241 237 235 232 224 231 221 210 205 197 186 203 212 202 174 148 143 147 147 151 158 167 175 181 189 196 203 209 210 211 212 215
276 272 270 268 266 261 253 240 238 237 232 238 238 231 233 224 218 220 207 199 202 190 204 226 224 153 133 139 133 130 132 130 135 147 156 165 171 180 188 194 199 204 209
272 267 266 264 263 262 253 243 244 243 231 231 232 227 231 227 217 214 207 203 202 204 200 208 205 174 145 157 145 137 129 120 118 128 134 140 144 150 162 174 184 192 200
273 271 266 261 260 258 252 246 241 240 235 231 226 222 223 216 219 215 209 205 205 207 200 199 204 184 155 154 140 129 118 111 114 120 119 119 122 124 131 142 154 162 173
275 272 266 261 257 255 253 250 246 241 238 234 227 222 219 212 214 210 210 207 201 198 195 194 194 181 165 158 149 148 142 134 130 122 111 109 109 108 112 119 128 138 149
284 274 269 266 261 258 258 252 246 248 237 235 232 227 224 220 216 209 206 202 197 194 192 194 193 184 172 168 170 163 159 147 126 132 126 117 104 96 96 106 113 126 139
281 277 270 265 263 269 269 265 252 249 241 234 233 232 233 228 222 215 212 203 195 192 194 192 193 190 187 179 166 165 157 160 169 162 142 136 118 107 88 96 118 131 134
278 276 272 266 261 260 260 260 254 244 237 234 231 229 237 231 215 212 213 210 208 206 195 186 190 195 186 180 171 174 178 170 165 163 143 139 127 113 82 95 127 133 134
277 274 273 267 263 265 263 258 256 246 237 233 229 223 222 226 215 202 200 199 200 205 204 195 192 196 193 183 178 178 173 147 113 147 143 137 135 113 92 78 122 133 134
283 277 272 267 264 267 263 258 253 244 238 236 233 227 219 221 217 199 190 192 197 209 211 203 195 193 188 181 170 158 160 160 157 164 157 131 134 118 103 84 99 128 135
283 284 281 270 264 266 264 258 248 236 237 237 235 229 220 214 212 196 192 190 196 202 193 194 200 201 193 186 179 174 171 171 159 162 165 137 140 137 128 112 106 119 126
Height
1534 1534 1534 1533 1533 1534 1534 1534 1534 1535 1535 1536 1537 1537 1538 1539 1541 1542 1544 1546 1548 1549 1551 1553 1556 1559 1561 1563 1565 1567 1569 1571 1573 1575 1578 1580 1582 1584 1586 1587 1589 1591 1593
1530 1530 1530 1529 1529 1529 1529 1529 1529 1530 1530 1531 1531 1532 1532 1534 1535 1537 1539 1541 1543 1545 1546 1549 1551 1554 1556 1559 1561 1563 1566 1568 1570 1573 1575 1577 1579 1581 1583 1585 1587 1589 1591
1527 1527 1526 1525 1525 1524 1524 1524 1523 1524 1524 1525 1525 1527 1528 1528 1530 1532 1534 1535 1537 1539 1541 1544 1546 1549 1551 1554 1557 1559 1562 1564 1567 1569 1572 1574 1576 1579 1581 1583 1585 1587 1589
1524 1523 1522 1521 1520 1519 1518 1517 1517 1516 1517 1518 1519 1520 1521 1523 1524 1526 1528 1529 1531 1533 1535 1538 1541 1544 1546 1549 1552 1554 1557 1560 1562 1565 1568 1571 1573 1575 1578 1580 1583 1585 1587
1520 1519 1518 1516 1515 1514 1512 1512 1511 1510 1511 1512 1513 1514 1515 1516 1518 1520 1521 1523 1525 1528 1530 1533 1535 1539 1542 1544 1547 1549 1552 1555 1558 1561 1564 1566 1569 1572 1574 1577 1579 1582 1584
1517 1515 1514 1512 1510 1508 1507 1506 1505 1505 1505 1505 1506 1507 1509 1510 1511 1513 1515 1517 1519 1522 1525 1527 1530 1533 1536 1539 1542 1544 1547 1550 1553 1556 1559 1562 1565 1568 1570 1573 1576 1578 1581
1514 1512 1510 1508 1506 1504 1502 1501 1500 1499 1499 1500 1501 1501 1502 1504 1505 1507 1509 1511 1514 1516 1519 1521 1524 1528 1531 1534 1537 1539 1542 1545 1548 1551 1554 1557 1560 1563 1566 1569 1572 1574 1577
1511 1509 1507 1505 1503 1500 1498 1496 1495 1495 1495 1495 1496 1496 1497 1499 1499 1501 1503 1505 1508 1511 1513 1516 1519 1522 1526 1529 1531 1534 1536 1539 1542 1545 1549 1552 1555 1558 1561 1564 1567 1570 1572
1508 1506 1504 1502 1500 1498 1496 1494 1492 1492 1491 1491 1492 1493 1493 1492 1493 1495 1497 1500 1503 1506 1508 1511 1514 1517 1520 1523 1526 1529 1532 1534 1537 1540 1543 1547 1550 1553 1556 1560 1562 1565 1568
1504 1502 1500 1498 1497 1495 1493 1491 1490 1488 1488 1487 1488 1488 1490 1490 1490 1490 1492 1495 1498 1501 1504 1506 1509 1512 1515 1518 1521 1524 1527 1530 1533 1535 1538 1541 1544 1548 1551 1554 1557 1560 1563
1500 1498 1497 1495 1494 1492 1490 1489 1487 1486 1485 1484 1484 1485 1486 1486 1486 1487 1488 1490 1493 1496 1499 1502 1504 1507 1510 1513 1516 1519 1522 1525 1528 1531 1533 1536 1539 1542 1545 1549 1552 1555 1558
1496 1494 1493 1491 1490 1489 1487 1486 1485 1483 1482 1482 1481 1482 1482 1483 1483 1484 1485 1487 1489 1492 1495 1497 1500 1503 1506 1509 1512 1515 1518 1521 1523 1526 1529 1531 1534 1537 1540 1544 1547 1550 1553
1491 1490 1488 1487 1486 1485 1484 1482 1481 1480 1479 1479 1478 1478 1479 1480 1481 1481 1482 1484 1486 1489 1491 1493 1496 1499 1502 1505 1508 1511 1513 1516 1519 1522 1524 1527 1530 1532 1535 1538 1541 1544 1547
1486 1485 1483 1482 1481 1480 1479 1478 1477 1477 1476 1475 1475 1475 1475 1476 1477 1478 1479 1481 1483 1485 1487 1489 1492 1495 1498 1501 1504 1507 1509 1512 1515 1518 1520 1522 1525 1528 1531 1533 1536 1539 1542
1481 1479 1478 1477 1476 1475 1474 1474 1473 1472 1472 1471 1471 1471 1471 1471 1473 1474 1476 1478 1480 1480 1482 1485 1488 1491 1494 1497 1500 1503 1505 1508 1511 1513 1516 1518 1520 1523 1526 1529 1531 1534 1537
1475 1473 1472 1471 1470 1469 1469 1468 1468 1468 1467 1467 1467 1467 1467 1467 1468 1469 1471 1473 1475 1477 1478 1481 1484 1487 1490 1493 1496 1499 1502 1504 1507 1509 1511 1513 1516 1518 1521 1524 1527 1529 1532
1469 1467 1466 1464 1463 1462 1462 1462 1461 1462 1462 1462 1462 1463 1463 1463 1464 1465 1466 1468 1470 1473 1475 1477 1480 1483 1486 1489 1492 1495 1498 1500 1503 1505 1507 1509 1512 1514 1517 1520 1523 1525 1528
1463 1461 1459 1457 1456 1455 1455 1455 1455 1455 1455 1456 1456 1457 1458 1459 1459 1460 1461 1463 1465 1468 1470 1472 1476 1479 1482 1485 1489 1491 1494 1496 1499 1501 1503 1506 1508 1510 1513 1516 1519 1521 1524
1456 1454 1452 1450 1449 1448 1447 1447 1447 1447 1448 1449 1450 1451 1452 1454 1454 1456 1457 1459 1461 1463 1465 1468 1471 1475 1478 1481 1485 1488 1490 1493 1496 1498 1500 1503 1505 1507 1510 1512 1515 1517 1520
1450 1447 1445 1443 1442 1441 1440 1439 1439 1439 1440 1441 1443 1444 1446 1448 1449 1451 1452 1454 1456 1458 1460 1463 1467 1470 1473 1476 1480 1483 1487 1490 1493 1495 1498 1500 1502 1504 1507 1509 1512 1514 1516
1443 1440 1438 1436 1434 1433 1432 1431 1431 1431 1432 1433 1435 1437 1439 1441 1443 1445 1447 1449 1451 1453 1455 1458 1461 1464 1467 1471 1475 1479 1483 1486 1490 1492 1495 1497 1499 1501 1503 1506 1508 1511 1513
1436 1433 1430 1428 1426 1425 1424 1423 1423 1423 1424 1425 1426 1429 1431 1434 1436 1439 1441 1443 1445 1447 1450 1452 1455 1458 1461 1465 1470 1474 1478 1482 1485 1488 1491 1494 1496 1498 1501 1504 1506 1508 1510
1428 1426 1423 1421 1418 1417 1416 1415 1415 1415 1416 1417 1418 1421 1424 1426 1429 1432 1435 1437 1440 1442 1445 1447 1450 1453 1457 1460 1464 1469 1473 1476 1480 1484 1488 1490 1493 1496 1499 1501 1503 1506 1508
1422 1419 1416 1414 1411 1409 1408 1407 1407 1407 1408 1409 1410 1413 1416 1419 1422 1426 1428 1431 1434 1437 1439 1442 1445 1449 1453 1456 1460 1464 1468 1473 1478 1481 1484 1487 1490 1493 1496 1499 1501 1503 1506
1416 1413 1410 1407 1404 1402 1401 1400 1400 1399 1400 1401 1403 1405 1408 1411 1415 1419 1422 1425 1428 1432 1435 1438 1441 1445 1448 1452 1455 1460 1464 1468 1472 1475 1480 1483 1486 1490 1494 1497 1499 1501 1504
1411 1408 1404 1401 1398 1396 1394 1393 1393 1392 1392 1393 1395 1398 1401 1404 1407 1412 1416 1419 1422 1426 1430 1434 1437 1440 1443 1447 1451 1455 1459 1463 1466 1471 1475 1479 1483 1487 1491 1494 1496 1499 1501